sat.trackr.live / text

‹ back to catalog

STARLINK-35740

NORAD 66210 · 2025-244E

PAYLOAD ACTIVE UNKNOWN

§ Identity

Operator
Country
US
Launch date
2025-10-28
Launch site
AFWTR
Launch vehicle
Mass (kg)
RCS (m²)

Purposes: comms

External: N2YO · Heavens-Above · Gunter

§ Orbital elements

Epoch: 2026-09-20T16:04:27.161184Z

Period
93.85 min
Inclination
53.1600°
Eccentricity
0.0001329
Mean motion
15.34404381 rev/d
Perigee alt
461.8 km
Apogee alt
463.6 km
Semi-major
6,840.8 km
B*
6.8751e-4
RAAN
40.5804°
Arg perigee
71.2535°
Mean anomaly
288.8612°
Rev number
5,156

§ Raw data

STARLINK-357401 66210U 25244E   26263.66975881  .00022927  00000+0  68751-3 0  99922 66210  53.1600  40.5804 0001329  71.2535 288.8612 15.34404381 51566

JSON: /api/v1/satellites/66210 · /tle

For live sub-satellite position, see the globe view (requires WebGL).

§ Visibility from observer

Set your observer location to see the next 7 days of passes ≥ 10°. The values pass through the URL so the page stays shareable.

No JS? Fill the form by hand. The geolocation button needs JavaScript.